Weather History for Big Piney, WY

Change the Weather History Date:

Wednesday, October 16, 2013

  Actual Average Record
Temperature  
Mean Temperature 33 °F 38 °F  
Max Temperature 49 °F 56 °F 66 °F (2004)
Min Temperature 16 °F 21 °F 9 °F (1999)
Degree Days  
Heating Degree Days 32 27  
Month to date heating degree days 421 381  
Since 1 July heating degree days 859 1132  
Cooling Degree Days 0 0  
Month to date cooling degree days 0 0  
Year to date cooling degree days 89 35  
Moisture  
Dew Point 20 °F    
Average Humidity 63    
Maximum Humidity 92    
Minimum Humidity 34    
Precipitation  
Precipitation 0.00 in 0.02 in 0.40 in (1980)
Month to date precipitation 0.32 0.34  
Year to date precipitation 4.15 5.78  
Sea Level Pressure  
Sea Level Pressure 30.18 in    
Wind  
Wind Speed 6 mph (North)    
Max Wind Speed 18 mph    
Max Gust Speed 23 mph    
Visibility 9 miles    
Events      
T = Trace of Precipitation, MM = Missing Value Source: NWS Daily Summary

Daily Weather History Graph

Daily Weather History Graph

Search for Another Location

Airport:

Trip Planner

Search our weather history database for the weather conditions in past years. The results will help you decide how hot, cold, wet, or windy it might be!

Date:

Astronomy

Oct. 16, 2013 Rise Set
Actual Time 7:35 AM MDT 6:36 PM MDT
Civil Twilight 7:06 AM MDT 7:04 PM MDT
Nautical Twilight 6:33 AM MDT 7:37 PM MDT
Astronomical Twilight 6:01 AM MDT 8:09 PM MDT
Moon 5:19 PM MDT (10/16) 5:03 AM MDT (10/16)
Length of Visible Light 11h 57m
Length of Day
11h 01m
Waxing Gibbous, 94% of the Moon is Illuminated
Oct 16
Waxing Gibbous
Oct 18
Full
Oct 26
Last Quarter
Nov 3
New
Nov 9
First Quarter

Hourly Weather History & Observations

Time (MDT) Temp. Windchill Dew Point Humidity Pressure Visibility Wind Dir Wind Speed Gust Speed Precip Events Conditions
12:53 AM 21.0 °F - 18.0 °F 88% 30.27 in 9.0 mi Calm Calm - N/A   Partly Cloudy
1:03 AM 21.2 °F 16.4 °F 19.4 °F 93% 30.22 in 2.0 mi NNW 3.5 mph - N/A   Mostly Cloudy
1:10 AM 21.2 °F 16.4 °F 19.4 °F 93% 30.22 in 1.5 mi North 3.5 mph - N/A   Mostly Cloudy
1:16 AM 21.2 °F - 17.6 °F 86% 30.22 in 3.0 mi Calm Calm - N/A   Scattered Clouds
1:53 AM 21.9 °F - 19.0 °F 89% 30.25 in 9.0 mi Calm Calm - N/A   Clear
2:53 AM 19.9 °F 13.4 °F 17.1 °F 89% 30.26 in 10.0 mi NE 4.6 mph - N/A   Clear
3:53 AM 19.9 °F - 17.1 °F 89% 30.24 in 10.0 mi Calm Calm - N/A   Clear
4:53 AM 19.0 °F - 15.1 °F 85% 30.23 in 10.0 mi Calm Calm - N/A   Clear
5:53 AM 18.0 °F 12.7 °F 15.1 °F 88% 30.23 in 10.0 mi West 3.5 mph - N/A   Clear
6:53 AM 16.0 °F - 12.0 °F 84% 30.25 in 10.0 mi Calm Calm - N/A   Clear
7:53 AM 19.0 °F - 16.0 °F 88% 30.25 in 10.0 mi Calm Calm - N/A   Clear
8:53 AM 24.1 °F - 21.0 °F 88% 30.24 in 10.0 mi Calm Calm - N/A   Clear
9:53 AM 30.0 °F - 21.9 °F 72% 30.22 in 10.0 mi Calm Calm - N/A   Clear
10:53 AM 35.1 °F 32.2 °F 23.0 °F 61% 30.19 in 10.0 mi Variable 3.5 mph - N/A   Clear
11:53 AM 39.0 °F - 23.0 °F 53% 30.16 in 10.0 mi Calm Calm - N/A   Clear
12:53 PM 43.0 °F 40.3 °F 24.1 °F 47% 30.14 in 10.0 mi Variable 4.6 mph - N/A   Clear
1:53 PM 45.0 °F 41.8 °F 23.0 °F 42% 30.10 in 10.0 mi South 5.8 mph - N/A   Clear
2:53 PM 48.0 °F - 21.9 °F 36% 30.07 in 10.0 mi North 11.5 mph 21.9 mph N/A   Clear
3:53 PM 46.0 °F 39.0 °F 21.0 °F 37% 30.09 in 10.0 mi North 17.3 mph - N/A   Clear
4:53 PM 44.1 °F 37.4 °F 19.9 °F 38% 30.10 in 10.0 mi North 13.8 mph - N/A   Clear
5:53 PM 41.0 °F 33.1 °F 24.1 °F 51% 30.12 in 10.0 mi North 15.0 mph - N/A   Mostly Cloudy
6:53 PM 39.0 °F 31.8 °F 23.0 °F 53% 30.15 in 10.0 mi North 11.5 mph - N/A   Partly Cloudy
7:53 PM 37.0 °F 28.5 °F 23.0 °F 57% 30.16 in 10.0 mi North 13.8 mph - N/A   Clear
8:53 PM 34.0 °F 26.0 °F 23.0 °F 64% 30.16 in 10.0 mi North 10.4 mph - N/A   Mostly Cloudy
9:53 PM 32.0 °F 24.8 °F 23.0 °F 69% 30.15 in 10.0 mi NNE 8.1 mph - N/A   Mostly Cloudy
10:53 PM 33.1 °F 25.5 °F 23.0 °F 66% 30.13 in 10.0 mi NNW 9.2 mph - N/A   Overcast
11:53 PM 32.0 °F 27.5 °F 24.1 °F 73% 30.10 in 10.0 mi NE 4.6 mph - N/A   Overcast